Tracking 30703 objects as of 12-Jun-2025
HD Live streaming from Space Station
objects crossing your sky now

ONEWEB-0020

Track ONEWEB-0020 now!
10-day predictions
ONEWEB-0020 is classified as:


NORAD ID: 45133
Int'l Code: 2019-071K
Perigee: 1,227.2 km
Apogee: 1,230.5 km
Inclination: 87.9 °
Period: 109.9 minutes
Semi major axis: 7599 km
RCS: Unknown
Launch date: November 2, 2019
Source: United States (US)
Launch site: WALLOPS ISLAND (WLPIS)
Your satellite tracking list
Your tracking list is empty




NASA's NSSDC Master Catalog

Two Line Element Set (TLE):
1 45133U 20008C   25162.78868383 -.00000265  00000-0 -79420-3 0  9993
2 45133  87.8818 110.1177 0002202  76.9795 283.1578 13.10369626259833
Source of the keplerian elements: AFSPC